Flag for U.S.A. Weather past 2 weeks in Toccoa, Georgia, U.S.A.

Now
79 °F

Clear.


Feels Like: 82 °F
Forecast: 74 / 93 °F
Wind: 3 mph from North

Location: Clemson-Oconee County Airport

Current Time: Jul 30, 2015 at 12:59:35 AM

Latest Report: Jul 29, 2015 at 11:54 PM


Visibility: 10 mi

Pressure: 29.98 "Hg

Humidity: 82%

Dew point: 73 °F

Location of ToccoaLocation

Historic Weather in Toccoa — Graph

°F

Toccoa temperature yesterday

Maximum temperature yesterday: 93 °F (at 1:54 PM)
Minimum temperature yesterday: 76 °F (at 6:54 AM)
Average temperature yesterday: 83 °F

Past Weeks' High & Low Weather Summary

 TemperatureHumidityPressure
High96 °F (Jul 18, 3:54 PM)91% (Jul 18, 4:54 AM)30.11 "Hg (Jul 18, 4:54 AM)
Low70 °F (Jul 14, 10:02 PM)31% (Jul 22, 5:54 PM)29.73 "Hg (Jul 15, 4:54 AM)
Average83 °F68%29.93 "Hg
* Reported Jul 14 10:02 PM — Jul 29 10:54 PM, Toccoa, Weather by CustomWeather, © 2015

Note: Actual official high and low records may vary slightly from our data, if they occured in-between our weather recording intervals... More about our weather records

Advertising

Toccoa weather history for previous 24 hours

 ConditionsComfort  
Time TempWeatherWind HumidityBarometerVisibility
10:54 PM
Wed, Jul 29
80 °FClear.3 mph79%29.99 "Hg10 mi
9:54 PM80 °FClear.No wind79%29.98 "Hg10 mi
8:54 PM81 °FPassing clouds.No wind77%29.96 "Hg10 mi
7:54 PM85 °FOvercast.No wind68%29.95 "Hg10 mi
6:54 PM84 °FPartly sunny.3 mph67%29.94 "Hg10 mi
5:54 PM83 °FSunny.6 mph70%29.94 "Hg10 mi
4:54 PM86 °FPartly sunny.6 mph63%29.93 "Hg10 mi
3:54 PM86 °FBroken clouds.10 mph65%29.96 "Hg10 mi
2:54 PM92 °FBroken clouds.No wind51%29.94 "Hg10 mi
1:54 PM93 °FPassing clouds.No wind50%29.97 "Hg10 mi
12:54 PM90 °FPassing clouds.No wind57%30.00 "Hg10 mi
11:54 AM89 °FScattered clouds.No wind59%30.01 "Hg10 mi
10:54 AM87 °FScattered clouds.7 mph63%30.01 "Hg10 mi
9:54 AM83 °FSunny.3 mph70%30.00 "Hg10 mi
8:54 AM80 °FSunny.5 mph76%30.01 "Hg10 mi
7:54 AM78 °FSunny.5 mph82%30.00 "Hg10 mi
6:54 AM76 °FClear.3 mph88%29.98 "Hg10 mi
5:54 AM77 °FClear.3 mph85%29.95 "Hg10 mi
4:54 AM77 °FClear.No wind88%29.94 "Hg10 mi
3:54 AM77 °FClear.No wind88%29.94 "Hg10 mi
2:54 AM79 °FClear.No wind84%29.94 "Hg10 mi
1:54 AM80 °FClear.No wind81%29.98 "Hg10 mi
12:54 AM80 °FClear.5 mph81%29.98 "Hg10 mi
Weather by CustomWeather, © 2015

See weather overviewHow to use our weather pages